Weather past 2 weeks in Cayenne, French Guiana

Now
81 °F

Light rain. Cloudy.


Feels Like: 85 °F
Forecast: 79 / 85 °F
Wind: 15 mph from Northeast

Location: Cayenne / Rochambeau

Current Time: Jul 24, 2014 at 2:01:36 PM

Latest Report: Jul 24, 2014 at 1:30 PM


Visibility: N/A

Pressure: 29.95 "Hg

Humidity: 74%

Dew point: 72 °F

Location of CayenneLocation

Historic Weather in Cayenne — Graph

°F

Cayenne temperature yesterday

Maximum temperature yesterday: 88 °F (at 11:30 AM)
Minimum temperature yesterday: 72 °F (at 6:00 AM)
Average temperature yesterday: 81 °F

Past Weeks' High & Low Weather Summary

 TemperatureHumidityPressure
High90 °F (Jul 9, 1:00 PM)100% (Jul 10, 1:30 AM)30.04 "Hg (Jul 10, 1:30 AM)
Low72 °F (Jul 15, 6:30 AM)49% (Jul 14, 1:30 PM)29.86 "Hg (Jul 9, 2:30 PM)
Average80 °F81%29.96 "Hg
* Reported Jul 9 1:00 PM — Jul 24 1:00 PM, Cayenne, Weather by CustomWeather, © 2014

Note: Actual official high and low records may vary slightly from our data, if they occured in-between our weather recording intervals... More about our weather records

Advertising

Cayenne weather history for previous 24 hours

 ConditionsComfort  
Time TempWeatherWind HumidityBarometerVisibility
1:00 PM
Jul 24
82 °FWarm.15 mph70%29.95 "HgN/A
12:30 PM84 °FPartly sunny.20 mph70%29.95 "HgN/A
12:00 PM88 °FPartly sunny.14 mph59%29.95 "HgN/A
11:30 AM88 °FPartly sunny.12 mph62%29.95 "HgN/A
11:00 AM86 °FScattered clouds.8 mph62%29.95 "HgN/A
10:30 AM86 °FBroken clouds.9 mph62%29.98 "HgN/A
10:00 AM84 °FPartly sunny.7 mph70%29.98 "HgN/A
9:30 AM84 °FPartly sunny.7 mph70%29.98 "HgN/A
9:00 AM82 °FClear.1 mph74%29.95 "HgN/A
8:30 AM79 °FClear.No wind89%29.95 "HgN/A
8:00 AM75 °FClear.1 mph94%29.95 "HgN/A
7:30 AM73 °FClear.No wind94%29.92 "HgN/A
7:00 AM72 °FClear.No wind94%29.92 "HgN/A
6:30 AM72 °FClear.No wind94%29.92 "HgN/A
6:00 AM72 °FFog.No wind94%29.89 "HgN/A
5:30 AM72 °FFog.No wind94%29.89 "HgN/A
5:00 AM72 °FClear.No wind100%29.89 "HgN/A
4:30 AM73 °FClear.No wind94%29.89 "HgN/A
4:00 AM72 °FPassing clouds.No wind100%29.89 "HgN/A
3:30 AM73 °FPassing clouds.No wind94%29.89 "HgN/A
3:00 AM73 °FPassing clouds.No wind94%29.92 "HgN/A
2:30 AM73 °FPassing clouds.No wind94%29.92 "HgN/A
2:00 AM73 °FClear.No wind94%29.92 "HgN/A
1:30 AM73 °FClear.No wind94%29.95 "HgN/A
1:00 AM75 °FClear.No wind89%29.95 "HgN/A
12:30 AM75 °FPassing clouds.No wind89%29.95 "HgN/A
12:00 AM75 °FPartly cloudy.No wind89%29.98 "HgN/A
11:30 PM
Jul 23
77 °FPartly cloudy.2 mph89%29.98 "HgN/A
11:00 PM75 °FPassing clouds.No wind89%29.98 "HgN/A
10:00 PM77 °FPassing clouds.3 mph83%29.98 "HgN/A
9:30 PM79 °FPassing clouds.3 mph79%29.95 "HgN/A
9:00 PM81 °FPassing clouds.5 mph74%29.95 "HgN/A
8:30 PM81 °FPartly cloudy.5 mph74%29.95 "HgN/A
8:00 PM81 °FPassing clouds.5 mph74%29.95 "HgN/A
7:30 PM81 °FPassing clouds.5 mph74%29.92 "HgN/A
7:00 PM82 °FClear.6 mph70%29.92 "HgN/A
6:30 PM82 °FClear.8 mph70%29.92 "HgN/A
6:00 PM84 °FClear.10 mph66%29.89 "HgN/A
5:30 PM86 °FClear.10 mph62%29.89 "HgN/A
5:00 PM86 °FPassing clouds.13 mph59%29.89 "HgN/A
4:00 PM88 °FPassing clouds.13 mph55%29.89 "HgN/A
3:30 PM88 °FPassing clouds.13 mph59%29.92 "HgN/A
3:00 PM88 °FScattered clouds.14 mph59%29.92 "HgN/A
2:30 PM88 °FPassing clouds.13 mph55%29.92 "HgN/A
2:00 PM88 °FPassing clouds.13 mph55%29.95 "HgN/A
Weather by CustomWeather, © 2014

See weather overviewHow to use our weather pages